This demonstration page uses our WeatherBlox Daily Observations layout. Learn more.

Left ArrowRight Arrow

41.12389, -100.76542

Hourly Observations for September 12, 2016

Temp ( °F °C ) Dew Point ( °F °C ) Humidity (%) Winds ( mph kmh ) Pressure ( in mb ) Visibility ( mi km ) Precip ( " mm )
12:53 am 00:53 Clear 69 20.6 60 15.6 73 73 SSE 9 15 29.72 1006 10 16 0.00 0.00
1:53 am 01:53 Clear 67 19.4 59 15 76 76 SE 8 13 29.70 1006 10 16 0.00 0.00
2:53 am 02:53 Clear 66 18.9 59 15 78 78 VRB 3 6 29.70 1006 10 16 0.00 0.00
3:53 am 03:53 Clear 64 17.8 59 15 84 84 E 7 11 29.70 1006 10 16 0.00 0.00
4:53 am 04:53 Clear 60 15.6 57 13.9 90 90 E 6 9 29.68 1005 10 16 0.00 0.00
5:53 am 05:53 Clear 58 14.4 56 13.3 93 93 ESE 7 11 29.69 1005 10 16 0.00 0.00
6:53 am 06:53 Mostly Clear 62 16.7 59 15 90 90 NNE 6 9 29.74 1007 10 16 0.00 0.00
7:20 am 07:20 Mostly Cloudy 59 15 52 11 77 77 NNW 12 19 29.80 1009 10 16 0.00 0.00
7:53 am 07:53 Mostly Cloudy 57 13.9 48 8.9 72 72 N 15 24 29.78 1008 10 16 0.00 0.00
8:53 am 08:53 Sunny 59 15 47 8.3 64 64 N 15 24 29.82 1010 10 16 0.00 0.00
9:53 am 09:53 Sunny 62 16.7 48 8.9 60 60 N 18 30 29.85 1011 10 16 0.00 0.00
10:53 am 10:53 Partly Cloudy 61 16.1 49 9.4 65 65 NNW 12 19 29.90 1013 10 16 0.00 0.00
11:03 am 11:03 Mostly Cloudy 61 16 48 9 63 63 N 15 24 29.91 1013 10 16 0.00 0.00
11:19 am 11:19 Partly Cloudy 61 16.1 49 9.4 65 65 N 14 22 29.91 1013 10 16 0.00 0.00
11:53 am 11:53 Mostly Sunny 61 16.1 49 9.4 65 65 N 16 26 29.90 1013 10 16 0.00 0.00
12:53 pm 12:53 Mostly Sunny 62 16.7 50 10 65 65 N 14 22 29.90 1013 10 16 0.00 0.00
1:53 pm 13:53 Sunny 67 19.4 52 11.1 59 59 N 14 22 29.88 1012 10 16 0.00 0.00
2:53 pm 14:53 Partly Cloudy 70 21.1 52 11.1 53 53 NNE 17 28 29.92 1013 10 16 0.00 0.00
3:53 pm 15:53 Cloudy 65 18.3 51 10.6 61 61 NNE 17 28 29.96 1014 10 16 0.00 0.00
4:10 pm 16:10 Cloudy 63 17 52 11 68 68 NNE 18 30 29.91 1013 10 16 0.00 0.00
4:53 pm 16:53 Cloudy 61 16.1 51 10.6 70 70 NNE 16 26 29.99 1016 10 16 0.00 0.00
5:53 pm 17:53 Cloudy 61 16.1 51 10.6 70 70 NNE 17 28 30.00 1016 10 16 0.00 0.00
6:53 pm 18:53 Cloudy 62 16.7 50 10 65 65 NNE 18 30 30.00 1016 10 16 0.00 0.00
7:48 pm 19:48 Partly Cloudy 61 16 48 9 63 63 NNE 9 15 30.00 1016 10 16 0.00 0.00
7:53 pm 19:53 Mostly Sunny 59 15 49 9.4 69 69 NNE 7 11 30.03 1017 10 16 0.00 0.00
8:53 pm 20:53 Clear 56 13.3 49 9.4 77 77 N 5 7 30.06 1018 10 16 0.00 0.00
9:53 pm 21:53 Cloudy 57 13.9 48 8.9 72 72 NNW 3 6 30.08 1019 10 16 0.00 0.00
10:53 pm 22:53 Mostly Cloudy 58 14.4 46 7.8 65 65 NNE 10 17 30.08 1019 10 16 0.00 0.00
11:53 pm 23:53 Clear 55 12.8 45 7.2 69 69 NNE 5 7 30.09 1019 10 16 0.00 0.00

Powered by AerisWeather